Alexandria, LA

11:32 PM CDT on June 28, 2017 (GMT -0500)
Alexandria International

Weather History for KAEX - February, 2009

Change the Weather History Date:

Thursday, February 19, 2009

  Actual Average Record
Temperature  
Mean Temperature 50 °F 53 °F  
Max Temperature 63 °F 64 °F 82 °F (1961)
Min Temperature 37 °F 42 °F 19 °F (1910)
Degree Days  
Heating Degree Days 15 13  
Month to date heating degree days 193 272  
Since 1 July heating degree days 1403 1563  
Growing Degree Days 2 (Base 50)    
Moisture  
Dew Point 32 °F    
Average Humidity 45    
Maximum Humidity 65    
Minimum Humidity 25    
Precipitation  
Precipitation 0.00 in 0.18 in 2.46 in (1938)
Month to date precipitation 1.61 3.01  
Year to date precipitation 2.67 8.23  
Snow  
Snow 0.00 in - T in (1942)
Month to date snowfall 0.0  
Since 1 July snowfall 0.0  
Snow Depth 0.00 in    
Sea Level Pressure  
Sea Level Pressure 30.19 in    
Wind  
Wind Speed 6 mph (NNW)    
Max Wind Speed 15 mph    
Max Gust Speed 20 mph    
Visibility 10 miles    
Events      
T = Trace of Precipitation, MM = Missing Value Source: NWS Daily Summary

Daily Weather History Graph

Daily Weather History Graph

Search for Another Location

Airport or City:

Trip Planner

Search our weather history database for the weather conditions in past years. The results will help you decide how hot, cold, wet, or windy it might be!

Date:

Astronomy

Feb. 19, 2009 Rise Set
Actual Time 6:47 AM CST 6:00 PM CST
Civil Twilight 6:22 AM CST 6:25 PM CST
Nautical Twilight 5:54 AM CST 6:53 PM CST
Astronomical Twilight 5:26 AM CST 7:22 PM CST
Moon 3:15 AM CST (2/19) 1:11 PM CST (2/19)
Length of Visible Light 12h 02m
Length of Day
11h 13m
Waning Crescent, 24% of the Moon is Illuminated
Feb 19
Waning Crescent
Feb 24
New
Mar 4
First Quarter
Mar 10
Full
Mar 18
Last Quarter

Hourly Weather History & Observations

Time (CST) Temp. Windchill Dew Point Humidity Pressure Visibility Wind Dir Wind Speed Gust Speed Precip Events Conditions
12:53 AM 57.9 °F - 34.0 °F 41% 29.99 in 10.0 mi NNW 8.1 mph - N/A   Clear
1:53 AM 53.1 °F - 36.0 °F 52% 30.03 in 10.0 mi NW 5.8 mph - N/A   Clear
2:53 AM 52.0 °F - 36.0 °F 54% 30.04 in 10.0 mi NW 5.8 mph - N/A   Clear
3:53 AM 51.1 °F - 36.0 °F 56% 30.06 in 10.0 mi NNW 8.1 mph - N/A   Clear
4:53 AM 48.9 °F - 36.0 °F 61% 30.09 in 10.0 mi NNW 5.8 mph - N/A   Clear
5:53 AM 48.0 °F - 35.1 °F 61% 30.12 in 10.0 mi North 5.8 mph - N/A   Clear
6:53 AM 45.0 °F 43.5 °F 34.0 °F 65% 30.15 in 10.0 mi NW 3.5 mph - N/A   Clear
7:53 AM 50.0 °F - 35.1 °F 57% 30.18 in 10.0 mi NNW 8.1 mph - N/A   Clear
8:53 AM 52.0 °F - 30.9 °F 45% 30.21 in 10.0 mi North 10.4 mph - N/A   Clear
9:53 AM 55.0 °F - 28.0 °F 35% 30.23 in 10.0 mi North 12.7 mph - N/A   Clear
10:53 AM 57.0 °F - 28.9 °F 34% 30.24 in 10.0 mi North 10.4 mph - N/A   Clear
11:53 AM 57.9 °F - 30.0 °F 35% 30.24 in - North - - N/A   Unknown
12:53 PM - - - N/A% 30.21 in - North - - N/A   Unknown
1:53 PM - - - N/A% 30.19 in - North - - N/A   Unknown
2:53 PM - - - N/A% 30.19 in - North - - N/A   Unknown
3:53 PM 62.6 °F - 30.2 °F 30% 30.19 in 10.0 mi NNW 8.1 mph - N/A   Clear
4:53 PM 62.6 °F - 30.2 °F 30% 30.20 in 10.0 mi NNW 8.1 mph - N/A   Clear
5:53 PM 60.8 °F - 24.8 °F 25% 30.22 in 10.0 mi NNW 9.2 mph - N/A   Clear
6:53 PM 51.8 °F - 28.4 °F 41% 30.25 in 10.0 mi NNW 5.8 mph - N/A   Clear
7:53 PM 44.6 °F - 33.8 °F 66% 30.28 in 10.0 mi Calm Calm - N/A   Clear
8:53 PM 44.6 °F - 32.0 °F 61% 30.30 in 10.0 mi Calm Calm - N/A   Clear
9:53 PM 44.6 °F - 32.0 °F 61% 30.31 in 10.0 mi Calm Calm - N/A   Clear
10:53 PM 41.0 °F - 30.2 °F 65% 30.38 in 10.0 mi Calm Calm - N/A   Clear
11:53 PM 37.4 °F - 30.2 °F 75% 30.38 in 10.0 mi Calm Calm - N/A   Clear